{"data":{"norad_id":58958,"epoch":"2026-05-24T23:59:23.523648Z","epoch_age_seconds":71929,"freshness":"FRESH","line1":"1 58958U 24028D   26144.99957782 -.00000045  00000+0  36295-4 0  9992","line2":"2 58958  39.9890 149.8964 0010666 123.8459 236.3304 13.70485284113881","mean_motion":13.70485284,"eccentricity":0.0010666,"inclination_deg":39.989,"raan_deg":149.8964,"arg_perigee_deg":123.8459,"mean_anomaly_deg":236.3304,"bstar":3.6295e-5,"rev_number":11388,"period_min":105.07227015215,"perigee_km":989.9620914536,"apogee_km":1005.6965027586,"semimajor_km":7375.9662971061,"source":"CELESTRAK","updated_at":"2026-05-25T13:38:01.088125Z"}}